Tracking 31027 objects as of 19-Jul-2025
HD Live streaming from Space Station
objects crossing your sky now

FENGYUN 1C DEB

Track FENGYUN 1C DEB now!
10-day predictions


NORAD ID: 31878
Int'l Code: 1999-025CKD
Perigee: 566.8 km
Apogee: 696.2 km
Inclination: 99.4 °
Period: 97.2 minutes
Semi major axis: 7002 km
RCS: 0.0122 m2 (small)
Launch date: May 10, 1999
Source: People's Republic of China (PRC)
Launch site: Taiyaun Space Center, China (TSC)

Note: This is SATELLITE DEBRIS
Your satellite tracking list
ATLAS 2A CENTAUR R/B
Track 1 satellite(s)




NASA's NSSDC Master Catalog

Two Line Element Set (TLE):
1 31878U 99025CKD 25194.93784999  .00006512  00000-0  77858-3 0  9993
2 31878  99.4439  91.1264 0092387 353.0145   6.9768 14.81584874959717
Source of the keplerian elements: AFSPC